Preview of NWS' New Version of Forecast
This preview is not operational and should not be used for support decisions.

Regional Weather Roundup (RWR)

Issued by Huntsville, AL (HUN)

                            
000
ASUS44 KHUN 201010
RWRHUN
       
WEATHER ROUNDUP FOR THE TENNESSEE VALLEY
NATIONAL WEATHER SERVICE HUNTSVILLE AL
400 AM CST WED FEB 20 2019

ALZ001>004-201100-
NORTHWEST ALABAMA
  
CITY           SKY/WX    TMP DP  RH WIND       PRES   REMARKS
SHOALS AIRPORT CLOUDY    50  48  93 SE17G25   29.89F                  
$$

ALZ005>007-016-201100-
NORTH CENTRAL ALABAMA
  
CITY           SKY/WX    TMP DP  RH WIND       PRES   REMARKS
CULLMAN AG STN   N/A     46 N/A N/A SE9         N/A                   
DECATUR AP     CLOUDY    47  45  93 SE23G32   29.94F                  
HUNTSVILLE AP  CLOUDY    48  46  93 SE25G37   29.94F                  
HUN NWS/UAH      N/A     47  44  90 SE16        N/A                   
MERIDIANVILLE  CLOUDY    46  44  91 SE13G22   29.95F                  
VINEMONT AP    CLOUDY    45  44  97 SE12G21   29.99F FOG              
$$
 
ALZ008>010-201100-
NORTHEAST ALABAMA
  
CITY           SKY/WX    TMP DP  RH WIND       PRES   REMARKS
ALBERTVILLE    CLOUDY    43  41  93 SE10G28   30.04F                  
FORT PAYNE     LGT RAIN  41  39  91 SE10G17   30.07F                  
SCOTTSBORO AP  MOCLDY    45  45 100 VRB10G37  30.03F                  
$$

TNZ076-096-097-201100-
SOUTHEASTERN MIDDLE TENNESSEE
  
CITY           SKY/WX    TMP DP  RH WIND       PRES   REMARKS
FAYETTEVILLE   CLOUDY    46  46 100 S25G35    29.92F                  
TULLAHOMA      CLOUDY    46  45  93 S16G26    29.92S                  
WINCHESTER     CLOUDY    46  43  87 S15G25    29.95F                  
$$
 
...SURROUNDING SITES...
  
CITY           SKY/WX    TMP DP  RH WIND       PRES   REMARKS
ATLANTA        DRIZZLE   40  38  93 E12       30.21F FOG     WCI  33  
ANNISTON       CLOUDY    43  41  93 E14G22    30.11F                  
BIRMINGHAM     CLOUDY    48  46  93 SE20G29   30.03F                  
CHATTANOOGA    CLOUDY    44  39  82 S16G26    30.09F                  
CORINTH        TSTM      54  52  94 S13G24    29.84R                  
DALTON         LGT RAIN  43  39  87 S12G18    30.14R                  
GADSDEN        CLOUDY    45  45 100 E10       30.10F                  
GOLDEN TRNGL     N/A    N/A N/A N/A MISG        N/A                   
HALEYVILLE     LGT RAIN  48  48 100 SE18G26   29.93F FOG              
JACKSON TN     LGT RAIN  41  41 100 NE6       29.89F                  
MEMPHIS        LGT RAIN  41  41 100 VRB6      29.84F FOG              
NASHVILLE      CLOUDY    49  45  86 S16       29.88F                  
OXFORD MS      DRIZZLE   50  50 100 CALM      29.88R                  
ROME           CLOUDY    41  37  86 E7        30.16F                  
SAVANNAH       CLOUDY    52  50  93 S10G17    29.85S FOG              
SELMER         CLOUDY    50  50 100 VRB6G13   29.88R FOG              
TUPELO         LGT RAIN  53  51  93 S15G24    29.85S FOG              
TUSCALOOSA     CLOUDY    52  49  89 SE13G21   29.97F                  
$$